DW2789 Weather Reports


Display with metric or nautical units.
time (UTC)temp
F
wind
direction
speed
MPH
gust
MPH
rain 1hr
in
rain 24hr
in
rain mn
in
humidity
%
barometer
mb
20260901215941 78 49 0.0 0.0 0.00 0.00 0.00 41 1006.0
20260901214944 78 49 1.0 4.0 0.00 0.00 0.00 39 1006.1
20260901213928 77 49 0.0 3.0 0.00 0.00 0.00 42 1006.2
20260901212935 77 49 0.0 0.0 0.00 0.00 0.00 41 1006.4
20260901211939 77 49 0.0 0.0 0.00 0.00 0.00 43 1006.5
20260901211000 76 49 0.0 0.0 0.00 0.00 0.00 41 1006.6
20260901204936 75 49 7.0 12.0 0.00 0.00 0.00 44 1006.9
20260901203939 74 49 5.0 11.0 0.00 0.00 0.00 44 1007.1
20260901202943 75 50 9.0 16.0 0.00 0.00 0.00 45 1007.0
20260901201949 74 50 2.0 8.0 0.00 0.00 0.00 44 1006.8
20260901200004 72 50 0.0 0.0 0.00 0.00 0.00 47 1006.6
20260901194946 72 50 0.0 0.0 0.00 0.00 0.00 45 1006.2
20260901193932 72 50 0.0 0.0 0.00 0.00 0.00 54 1006.4
20260901192954 72 50 0.0 0.0 0.00 0.00 0.00 53 1006.5
20260901191937 72 49 0.0 0.0 0.00 0.00 0.00 45 1006.9
20260901190941 71 49 0.0 0.0 0.00 0.00 0.00 46 1007.3
20260901185929 71 50 0.0 0.0 0.00 0.00 0.00 47 1007.8
20260901184934 70 49 0.0 0.0 0.00 0.00 0.00 55 1007.9
20260901183937 70 50 0.0 0.0 0.00 0.00 0.00 47 1008.0
20260901182940 70 50 0.0 0.0 0.00 0.00 0.00 50 1007.9
20260901181928 70 49 0.0 0.0 0.00 0.00 0.00 48 1007.9
20260901180004 70 50 0.0 0.0 0.00 0.00 0.00 45 1008.3
20260901174947 70 49 0.0 0.0 0.00 0.00 0.00 45 1008.3
20260901174008 70 50 3.0 13.0 0.00 0.00 0.00 44 1008.3
20260901172929 70 50 8.0 15.0 0.00 0.00 0.00 44 1008.3
20260901171937 70 49 11.0 17.0 0.00 0.00 0.00 42 1008.1
20260901170943 71 51 11.0 16.0 0.00 0.00 0.00 42 1007.8
20260901165947 71 52 10.0 14.0 0.00 0.00 0.00 41 1007.6
20260901164930 72 52 7.0 13.0 0.00 0.00 0.00 41 1007.0
20260901163937 72 52 11.0 15.0 0.00 0.00 0.00 41 1007.3
20260901162941 72 52 3.0 12.0 0.00 0.00 0.00 42 1007.1
20260901161945 72 52 3.0 10.0 0.00 0.00 0.00 41 1007.1
20260901161008 70 52 3.0 11.0 0.00 0.00 0.00 44 1007.4
20260901160008 67 52 0.0 2.0 0.00 0.00 0.00 50 1007.4
20260901154935 65 52 0.0 5.0 0.00 0.00 0.00 55 1007.7
20260901153938 63 52 0.0 0.0 0.00 0.00 0.00 59 1007.7
20260901152944 61 52 0.0 0.0 0.00 0.00 0.00 58 1007.6
20260901150940 60 52 0.0 0.0 0.00 0.00 0.00 57 1007.4
20260901150005 60 52 0.0 0.0 0.00 0.00 0.00 61 1007.3
20260901144930 60 52 0.0 0.0 0.00 0.00 0.00 61 1007.2
20260901143936 59 52 0.0 0.0 0.00 0.00 0.00 59 1007.2
20260901142942 59 52 0.0 0.0 0.00 0.00 0.00 55 1007.0
20260901141953 59 52 0.0 0.0 0.00 0.00 0.00 56 1006.9
20260901140934 58 52 0.0 0.0 0.00 0.00 0.00 55 1006.8
20260901140000 58 52 0.0 0.0 0.00 0.00 0.00 55 1006.9
20260901135001 58 52 0.0 0.0 0.00 0.00 0.00 55 1006.8
20260901133943 58 52 0.0 0.0 0.00 0.00 0.00 55 1006.6
20260901132951 58 52 0.0 0.0 0.00 0.00 0.00 54 1006.6
20260901131930 58 52 0.0 0.0 0.00 0.00 0.00 55 1006.5
20260901130937 58 52 0.0 0.0 0.00 0.00 0.00 54 1006.6
20260901125941 58 52 0.0 0.0 0.00 0.00 0.00 55 1006.6
20260901124932 58 52 0.0 0.0 0.00 0.00 0.00 55 1006.5
20260901123955 57 52 0.0 0.0 0.00 0.00 0.00 55 1006.6
20260901121930 56 52 0.0 0.0 0.00 0.00 0.00 59 1006.5
20260901120934 56 52 0.0 0.0 0.00 0.00 0.00 58 1006.3
20260901115941 55 52 0.0 0.0 0.00 0.00 0.00 62 1006.3
20260901115006 55 52 0.0 0.0 0.00 0.00 0.00 64 1006.4
20260901113002 54 52 0.0 0.0 0.00 0.00 0.00 63 1006.5
20260901111943 54 52 0.0 0.0 0.00 0.00 0.00 65 1006.5
20260901110927 54 52 0.0 0.0 0.00 0.00 0.00 64 1006.5
20260901105938 54 52 0.0 0.0 0.00 0.00 0.00 67 1006.8
20260901104942 54 52 0.0 0.0 0.00 0.00 0.00 64 1006.7
20260901103928 54 52 0.0 0.0 0.00 0.00 0.00 65 1006.7
20260901102935 54 52 0.0 0.0 0.00 0.00 0.00 65 1006.8
20260901101942 55 52 0.0 0.0 0.00 0.00 0.00 66 1006.7
20260901100929 55 52 0.0 0.0 0.00 0.00 0.00 64 1006.7
20260901095931 55 52 0.0 0.0 0.00 0.00 0.00 60 1006.8
20260901094933 55 52 0.0 0.0 0.00 0.00 0.00 62 1006.8
20260901093943 56 52 0.0 0.0 0.00 0.00 0.00 63 1006.8
20260901092930 56 52 0.0 0.0 0.00 0.00 0.00 61 1006.9
20260901091954 57 52 0.0 0.0 0.00 0.00 0.00 58 1006.9
20260901090937 57 52 0.0 0.0 0.00 0.00 0.00 53 1006.8
20260901085943 58 52 0.0 0.0 0.00 0.00 0.00 54 1006.7
20260901084945 58 52 0.0 0.0 0.00 0.00 0.00 53 1006.8
20260901083950 59 52 0.0 0.0 0.00 0.00 0.00 51 1006.8
20260901082932 59 52 0.0 0.0 0.00 0.00 0.00 51 1006.8
20260901081938 59 52 0.0 0.0 0.00 0.00 0.00 51 1006.7
20260901080941 59 52 0.0 0.0 0.00 0.00 0.00 50 1006.7
20260901075944 60 52 0.0 0.0 0.00 0.00 0.00 50 1006.8
20260901074947 60 52 0.0 0.0 0.00 0.00 0.00 51 1006.8
20260901073952 60 52 0.0 0.0 0.00 0.00 0.00 51 1006.7
20260901072938 60 52 0.0 0.0 0.00 0.00 0.00 51 1006.7
20260901071941 60 52 0.0 0.0 0.00 0.00 0.00 51 1006.6
20260901070945 61 52 0.0 0.0 0.00 0.00 0.00 52 1006.6
20260901065927 61 52 0.0 0.0 0.00 0.00 0.00 51 1006.7
20260901064937 61 52 0.0 0.0 0.00 0.00 0.00 52 1006.8
20260901064002 61 52 0.0 0.0 0.00 0.00 0.00 53 1006.7
20260901062945 61 52 0.0 0.0 0.00 0.00 0.00 53 1006.8
20260901061928 61 52 0.0 0.0 0.00 0.00 0.00 48 1006.8
20260901060935 62 52 0.0 0.0 0.00 0.00 0.00 49 1006.8
20260901055940 62 52 0.0 0.0 0.00 0.00 0.00 49 1006.8
20260901054944 63 52 0.0 0.0 0.00 0.00 0.00 50 1006.8
20260901053928 63 52 0.0 0.0 0.00 0.00 0.00 43 1006.8
20260901052936 64 52 0.0 0.0 0.00 0.00 0.00 43 1006.8
20260901051939 64 52 0.0 0.0 0.00 0.00 0.00 43 1006.6
20260901050942 64 52 0.0 0.0 0.00 0.00 0.00 42 1006.6
20260901050004 65 52 0.0 0.0 0.00 0.00 0.00 42 1006.6
20260901044931 65 52 0.0 0.0 0.00 0.00 0.00 41 1006.7
20260901043935 65 52 0.0 0.0 0.00 0.00 0.00 43 1006.7
20260901042938 66 52 0.0 0.0 0.00 0.00 0.00 43 1006.8
20260901041941 66 52 0.0 0.0 0.00 0.00 0.00 43 1006.9
20260901040932 66 52 0.0 0.0 0.00 0.00 0.00 44 1006.9
20260901035953 67 52 0.0 0.0 0.00 0.00 0.00 45 1006.9
20260901034938 67 52 0.0 0.0 0.00 0.00 0.00 44 1006.9
20260901033940 68 52 0.0 0.0 0.00 0.00 0.00 46 1006.8
20260901033003 68 52 0.0 0.0 0.00 0.00 0.00 44 1006.8
20260901031948 69 52 0.0 0.0 0.00 0.00 0.00 43 1006.7
20260901025944 71 52 0.0 0.0 0.00 0.00 0.00 42 1006.8
20260901024948 73 52 0.0 0.0 0.00 0.00 0.00 42 1006.7
20260901023930 75 52 0.0 0.0 0.00 0.00 0.00 41 1006.8
20260901022936 77 52 0.0 0.0 0.00 0.00 0.00 40 1006.8
20260901021958 80 52 0.0 0.0 0.00 0.00 0.00 37 1006.9
20260901021001 82 52 0.0 0.0 0.00 0.00 0.00 37 1007.0
20260901015943 83 52 0.0 0.0 0.00 0.00 0.00 37 1007.1
20260901015004 84 52 0.0 0.0 0.00 0.00 0.00 35 1007.0
20260901013934 84 52 0.0 0.0 0.00 0.00 0.00 32 1007.0
20260901012938 85 52 0.0 3.0 0.00 0.00 0.00 33 1007.1
20260901012001 85 52 0.0 0.0 0.00 0.00 0.00 32 1007.1
20260901005937 86 52 0.0 3.0 0.00 0.00 0.00 31 1007.3
20260901004943 86 52 0.0 1.0 0.00 0.00 0.00 28 1007.3
20260901003931 86 52 0.0 4.0 0.00 0.00 0.00 30 1007.4
20260901002931 86 52 0.0 4.0 0.00 0.00 0.00 29 1007.4
20260901001933 86 52 1.0 5.0 0.00 0.00 0.00 29 1007.5
20260901000942 86 52 2.0 10.0 0.00 0.00 0.00 29 1007.7
20260831235929 86 52 1.0 9.0 0.00 0.00 0.00 27 1007.9
20260831234932 86 52 3.0 10.0 0.00 0.00 0.00 27 1008.0
20260831233954 86 52 2.0 7.0 0.00 0.00 0.00 25 1008.1
20260831232936 86 52 0.0 9.0 0.00 0.00 0.00 28 1008.3
20260831231942 85 53 4.0 10.0 0.00 0.00 0.00 29 1008.4
20260831230927 85 53 2.0 8.0 0.00 0.00 0.00 28 1008.7
20260831225932 85 52 2.0 6.0 0.00 0.00 0.00 30 1008.8
20260831224934 84 53 1.0 5.0 0.00 0.00 0.00 33 1009.0
20260831223941 83 52 2.0 7.0 0.00 0.00 0.00 29 1009.2
20260831222943 83 53 3.0 10.0 0.00 0.00 0.00 31 1009.4
20260831220943 82 52 0.0 5.0 0.00 0.00 0.00 31 1009.7